SHIYAN 1 (SY-1)

Last updated on Tue Oct 15 2024 00:02:24 GMT+0000 (Coordinated Universal Time)

1 28220U 04012A 24288.54571205 .00013058 00000+0 69479-3 0 9998 2 28220 97.9555 321.5738 0008287 356.5883 3.5290 15.15364133118043
UTC large
Height (km)
Speed (km/s)
/
Latitude / Longitude
Inclination (degrees)
Orbital Period (minutes)
Azimuth
Elevation
Range (km)
Doppler Factor

Next 0 passes for location: London (51.5072 / 0.1276)

Sorry there are no passes over London.